Location: Golden Pond Observatory
(36.7773°N, 88.0631°W)
Time: 06:44:24
(UTC-06:00)

Hubble Space Telescope - Visible Passes

Search period start: 21 January 2021 00:00
Search period end: 31 January 2021 00:00
Orbit: 536 x 539 km, 28.5° (Epoch: 20 January)

Date Brightness Start Highest point End Pass type
(mag) Time Alt. Az. Time Alt. Az. Time Alt. Az.
21 Jan 2.4 18:13:43 10° SW 18:17:08 25° S 18:19:55 13° SE visible
21 Jan 3.7 19:54:37 10° WSW 19:55:14 13° SW 19:55:14 13° SW visible
22 Jan 2.5 18:02:47 10° SW 18:06:14 25° S 18:09:40 10° ESE visible
22 Jan 3.4 19:43:52 10° WSW 19:45:09 15° SW 19:45:09 15° SW visible
23 Jan 2.5 17:51:54 10° WSW 17:55:19 25° S 17:58:46 10° SE visible
23 Jan 3.2 19:33:11 10° WSW 19:35:06 16° SSW 19:35:06 16° SSW visible
24 Jan 2.6 17:41:01 10° WSW 17:44:25 25° S 17:47:49 10° SE visible
24 Jan 3.2 19:22:35 10° SW 19:25:01 15° SSW 19:25:08 15° SSW visible
25 Jan 3.3 19:12:09 10° SW 19:14:05 13° SSW 19:15:15 12° S visible
26 Jan 3.6 19:02:09 10° SW 19:03:07 11° SSW 19:04:05 10° S visible
